Location: Lindenhurst
(40.6868°N, 73.3735°W)
Time: 05:17:37
(UTC+00:00)

Daily predictions for brighter satellites

Satellite Brightness Start Highest point End
(mag) Time Altitude Azimuth Time Altitude Azimuth Time Altitude Azimuth
ISS -0.7 00:01:41 10° NW 00:02:04 13° NW 00:02:04 13° NW
Cosmos 2266 Rocket 4.2 00:00:23 10° N 00:06:45 73° W 00:13:08 10° S
SL-16 R/B 3.5 00:02:28 10° NNW 00:05:05 28° N 00:05:05 28° N
Cosmos 2082 Rocket 4.1 00:03:59 10° WSW 00:08:36 25° NW 00:11:58 15° N
ATLAS 5 CENTAUR R/B 4.4 00:06:59 10° NW 00:08:17 16° NNW 00:08:17 16° NNW
CZ-2C R/B 4.1 00:18:58 10° SW 00:19:38 14° SW 00:19:38 14° SW
CENTAUR R/B 3.6 08:51:33 37° NNE 08:51:33 37° NNE 08:55:38 10° NE
Cosmos 1943 Rocket 4.0 08:53:41 22° NNE 08:53:41 22° NNE 08:55:40 10° NNE
NOSS 3-2 (C) 3.9 09:13:26 48° NNE 09:13:26 48° NNE 09:17:59 10° NNE
Cosmos 2344 3.9 09:14:06 47° NNW 09:14:06 47° NNW 09:20:16 10° NNE
Cosmos 1812 4.5 09:28:44 29° ENE 09:29:14 30° ENE 09:32:37 10° SE
Tsikada Rocket 3.8 09:26:40 10° S 09:32:51 81° W 09:39:10 10° N
Meteor 2-3 Rocket 3.9 09:40:23 53° NNW 09:40:23 53° NNW 09:44:53 10° N
USA 238 DEB 3.8 09:40:07 51° NW 09:40:07 51° NW 09:46:25 10° NNE
USA 238 3.7 09:40:11 51° NW 09:40:11 51° NW 09:46:31 10° NNE
BREEZE-M DEB (TANK) 3.1 09:43:04 64° NW 09:43:50 82° NE 09:57:10 10° ESE
USA 215 4.0 09:41:09 10° E 09:47:16 45° NNE 09:50:34 26° NNW
Cosmos 1241 Rocket 4.3 09:49:45 53° WNW 09:51:06 68° WSW 09:57:14 10° SSE
Meteor 1-31 Rocket 3.7 09:48:32 10° NNE 09:52:19 48° E 09:56:06 10° S
Cosmos 921 Rocket 3.0 09:53:48 63° N 09:54:30 85° ENE 09:58:58 10° SSE
Cosmos 1782 3.9 09:57:34 31° S 09:57:34 31° S 09:59:45 10° S
Cosmos 2263 4.2 09:52:33 10° SSW 09:58:13 84° ESE 10:03:59 10° NNE
Meteor 1-26 Rocket 4.2 09:56:03 30° NNW 09:58:59 65° W 10:04:39 10° S
H-2A R/B 2.6 09:56:24 10° NNE 10:00:08 87° E 10:03:54 10° SSW
Cosmos 1862 3.5 09:58:16 10° S 10:02:10 68° E 10:06:06 10° NNE
Cosmos 2208 Rocket 4.3 10:02:49 46° WSW 10:02:49 46° WSW 10:07:52 10° S
Cosmos 1867 4.0 10:03:11 40° WSW 10:03:11 40° WSW 10:08:06 10° S
Gbstr 26 Del rocket 4.2 10:04:20 26° SSW 10:04:20 26° SSW 10:07:06 10° SSE
Okean 3 Rocket 3.9 09:59:48 10° S 10:04:17 68° E 10:08:49 10° NNE
Cosmos 1503 Rocket 4.2 10:03:05 10° S 10:08:18 72° ESE 10:13:37 10° NNE
Cosmos 1151 Rocket 3.0 10:05:51 20° N 10:08:55 84° E 10:13:17 10° S
Cosmos 2369 Rocket 2.1 10:05:54 23° SW 10:09:16 57° WNW 10:14:48 10° NNE
SL-19 R/B 4.2 10:06:19 10° S 10:11:53 66° WSW 10:16:13 17° NNW
Cosmos 1766 Rocket 3.4 10:09:02 10° S 10:13:22 84° W 10:17:43 10° N
SJ-12 3.8 10:09:42 10° N 10:13:49 64° WNW 10:17:54 10° SSW
Meteor 2-13 Rocket 4.4 10:07:54 10° SSW 10:13:54 57° W 10:19:54 10° N
Cosmos 1486 Rocket 4.0 10:10:30 10° SSW 10:15:42 57° WNW 10:20:55 10° N
BREEZE M DEB (TANK) 4.3 10:21:35 22° NNW 10:21:35 22° NNW 10:23:41 10° NE
Cosmos 1328 Rocket 3.5 10:21:01 10° N 10:25:25 89° E 10:29:46 10° S
Cosmos 1656 Rocket 3.6 10:20:23 10° SW 10:25:42 57° WNW 10:31:04 10° NNE
Iridium 2 3.9 10:22:36 10° SSW 10:26:12 43° W 10:26:47 39° WNW
CZ-4B R/B 4.2 10:24:46 10° NNE 10:28:06 37° E 10:31:27 10° SSE
DNEPR-1 R/B 4.0 10:27:07 20° NNW 10:30:36 85° ENE 10:36:32 10° SSE
COSMO-SKYMED 1 2.7 10:27:54 10° S 10:32:08 53° W 10:35:30 16° NNW
CZ-2C R/B 2.7 10:28:09 10° S 10:33:34 58° W 10:38:54 10° NNW
Cosmos 1943 Rocket 3.7 10:35:16 18° NW 10:35:16 18° NW 10:38:11 10° N
Envisat 3.3 10:35:28 10° N 10:40:13 41° WNW 10:44:56 10° SW
CENTAUR R/B 3.7 10:38:45 20° NW 10:40:38 22° NNW 10:46:03 10° NNE
Cosmos 2098 Rocket 3.8 10:42:11 10° SW 10:45:36 29° WNW 10:49:46 10° NNW
Cosmos 1408 Rocket 3.4 10:43:16 10° SSW 10:47:33 77° W 10:51:53 10° N
DELTA 2 R/B (1) 3.7 10:47:14 15° WSW 10:51:52 77° S 10:57:25 10° E
Cosmos 1340 Rocket 3.3 10:49:06 10° S 10:52:58 61° E 10:56:55 10° NNE
NOAA 12 4.4 10:48:14 10° NNE 10:53:31 73° ESE 10:58:44 10° S
Cosmos 2279 Rocket 4.2 10:48:36 10° NNW 10:54:29 47° W 11:00:21 10° SSW
Cosmos 1174 3.4 10:52:18 10° SSW 10:55:15 66° ESE 10:58:17 10° NE
Cosmos 1743 Rocket 3.9 10:51:33 10° S 10:55:54 67° E 11:00:14 10° NNE
SMAP 4.0 10:52:14 10° NNE 10:56:47 51° E 11:01:18 10° S
NOAA 11 4.2 10:55:43 10° N 11:01:07 62° WNW 11:06:31 10° SSW
Nadezhda 4 Rocket 3.9 10:55:36 10° SSW 11:01:44 77° W 11:07:59 10° N
CZ-4B R/B 3.4 11:00:05 10° SE 11:03:00 29° ENE 11:05:55 10° N
Meteor 1-27 Rocket 3.8 10:57:21 10° N 11:03:02 89° ENE 11:08:49 10° S
DMSP B5D1-3 4.5 10:58:46 10° S 11:03:54 79° WSW 11:09:05 10° NNW
Cosmos 1812 4.3 11:03:50 15° WNW 11:04:41 16° W 11:07:08 10° SW
Meteor 2-15 Rocket 4.4 10:59:34 10° N 11:05:39 77° W 11:11:41 10° S
Cosmos 1515 Rocket 3.6 11:02:55 10° NNW 11:07:12 58° W 11:11:27 10° S
Cosmos 1939 Rocket 2.8 11:03:43 10° NNE 11:07:40 85° ESE 11:11:32 10° SSW
ATLAS 3B R/B 2.8 11:01:31 10° SSW 11:07:59 79° ESE 11:14:46 10° NE
Cosmos 1354 Rocket 4.4 11:04:22 10° SW 11:09:17 39° WNW 11:14:17 10° N
SJ 16-02 1.2 11:05:46 10° SSW 11:10:08 73° WNW 11:14:32 10° NNE
Meteor PRIRODA 3.8 11:08:07 10° N 11:11:37 46° WNW 11:15:05 10° SSW
ADEOS 4.0 11:09:30 10° N 11:14:22 40° WNW 11:19:13 10° SW
Cosmos 1515 4.2 11:10:44 10° N 11:14:30 62° E 11:18:15 10° SSE
Cosmos 1092 Rocket 4.2 11:11:07 10° S 11:17:22 83° E 11:23:42 10° N
CZ-4C R/B 4.2 11:17:12 10° SW 11:19:32 19° W 11:21:51 10° NW
ATLAS 5 CENTAUR R/B 1.3 11:18:22 10° SW 11:22:05 56° NW 11:26:13 10° NNE
SL-8 R/B 3.7 11:17:47 10° WNW 11:22:34 84° SSW 11:27:20 10° SE
Cosmos 1500 Rocket 3.7 11:19:58 10° SSW 11:24:20 54° W 11:28:43 10° N
SL-4 R/B 4.1 11:22:54 10° SSW 11:25:56 27° SE 11:29:09 10° ENE
CZ-2C R/B 3.3 11:22:30 10° N 11:27:07 44° WNW 11:31:55 10° SW
Geosat FO 4.4 11:24:58 10° SSE 11:28:17 75° WSW 11:31:36 10° NNW
Okean 1 4.3 11:25:30 10° N 11:29:21 50° E 11:33:11 10° SSE
USA 215 3.5 11:23:41 10° SSE 11:30:07 60° SW 11:36:34 10° NW
Meteor 1-25 Rocket 4.2 11:25:27 10° S 11:31:05 84° W 11:36:42 10° N
Sich 1 3.1 11:30:31 10° S 11:34:48 87° E 11:39:05 10° N
COSMOS 2487 2.6 11:31:44 10° NNW 11:35:05 73° ENE 11:38:25 10° SSE
Cosmos 1805 Rocket 3.5 11:31:48 10° SSW 11:36:10 70° W 11:40:33 10° N
